Hourly Data Report for July 23, 2021

TORONTO CITY
ONTARIO
Current Station Operator: ECCC - MSC

43°40'00.000" N
79°24'00.000" W
112.50 m
6158355
71508
XTO

Download Data

Hourly Data (July 2021)
Hourly Data Report for July 23, 2021
TIME
LST
Temp Definition
°C
Dew Point Definition
°C
Rel Hum Definition
%
Precip. Amount Definition
mm

Wind Dir Definition
10's deg

Wind Spd Definition
km/h
Visibility Definition
km
Stn Press Definition
kPa
Hmdx Definition


Wind Chill Definition


Weather Definition


00:00 19.6 9.9 53 0.0       100.85     LegendNANA
01:00 17.8 11.7 67 0.0       100.84     LegendNANA
02:00 18.4 12.3 68 0.0       100.84     LegendNANA
03:00 18.0 12.1 68 0.0       100.85     LegendNANA
04:00 16.3 11.7 74 0.0       100.86     LegendNANA
05:00 16.0 11.5 75 0.0       100.88     LegendNANA
06:00 16.0 11.4 74 0.0       100.91     LegendNANA
07:00 19.2 11.1 60 0.0       100.92     LegendNANA
08:00 20.8 10.6 52 0.0       100.94     LegendNANA
09:00 22.2 9.1 43 0.0       100.95     LegendNANA
10:00 23.1 11.8 49 0.0       100.91 25   LegendNANA
11:00 22.9 11.5 48 0.0       100.90 25   LegendNANA
12:00 23.6 11.1 45 0.0       100.87 25   LegendNANA
13:00 24.2 9.8 40 0.0       100.85 25   LegendNANA
14:00 24.6 10.3 41 0.0       100.81 26   LegendNANA
15:00 24.8 11.0 42 0.0       100.75 27   LegendNANA
16:00 25.0 11.1 42 0.0       100.70 27   LegendNANA
17:00 24.4 11.7 45 0.0       100.64 27   LegendNANA
18:00 24.1 11.6 45 0.0       100.60 26   LegendNANA
19:00 23.5 11.2 46 0.0       100.59 25   LegendNANA
20:00 22.3 12.3 53 0.0       100.57 25   LegendNANA
21:00 22.1 12.0 53 0.0       100.61     LegendNANA
22:00 21.9 12.7 56 0.0       100.62 25   LegendNANA
23:00 21.0 13.0 60 0.0       100.61     LegendNANA

Notes on Data Quality.

Legend

  • E = Estimated
  • M = Missing
  • NA = Not Available*
  • [empty] = Indicates an unobserved value
Date modified: